Location: Ash Shall?l al Awwal
(24.0167°N, 32.8667°E)
Time: 10:51:45
(UTC+00:00)

SME Rocket - Pass Details

Date: 02 March 2021
Orbit: 550 x 2652 km, 99.9° (Epoch: 16 April)

Event Time Altitude Azimuth Distance (km) Brightness Sun altitude
Rises 17:37:34 0° 9° (N) 4,268 7.3 -24.9°
Reaches altitude 10° 17:40:45 10° 7° (N) 2,989 6.5 -25.6°
Maximum altitude 17:47:01 62° 288° (WNW) 917 4.0 -27.1°
Drops below altitude 10° 17:51:21 10° 208° (SSW) 2,078 6.0 -28.1°
Sets 17:53:14 0° 204° (SSW) 2,872 6.7 -28.5°
